This demonstration page uses our WeatherBlox Daily Observations layout. Learn more.

Left ArrowRight Arrow

Hourly Observations for September 9, 2020

Temp ( °F °C ) Dew Point ( °F °C ) Humidity (%) Winds ( mph kmh ) Pressure ( in mb ) Visibility ( mi km ) Precip ( " mm )
12:52 am 00:52 Cloudy with Light Rain 44 6.7 42 5.6 93 93 N 13 20 30.32 1027 10 16 0.01 0.25
1:52 am 01:52 Cloudy with Light Rain 44 6.7 43 6.1 96 96 N 16 26 30.31 1026 7 11 0.02 0.51
2:00 am 02:00 Cloudy with Thunderstorms 44 6.7 43 6.1 96 96 N 14 22 30.31 1027 7 11 0.01 0.25
2:46 am 02:46 Cloudy with Light Rain 45 7 43 6 93 93 N 12 19 30.31 1027 7 11 0.01 0.25
2:52 am 02:52 Cloudy with Light Rain 44 6.7 43 6.1 96 96 N 12 19 30.31 1027 5 8 0.04 1.02
3:08 am 03:08 Cloudy with Light Rain 44 6.7 43 6.1 96 96 N 15 24 30.32 1027 7 11 0.01 0.25
3:52 am 03:52 Cloudy with Light Rain 44 6.7 43 6.1 96 96 N 14 22 30.32 1027 6 10 0.02 0.51
4:52 am 04:52 Cloudy with Light Rain 44 6.7 43 6.1 96 96 N 14 22 30.29 1026 6 10 0.03 0.76
5:52 am 05:52 Cloudy with Light Rain 45 7.2 43 6.1 93 93 N 12 19 30.30 1026 10 16 0.00 0.00
6:52 am 06:52 Cloudy with Light Rain 45 7.2 44 6.7 97 97 N 14 22 30.30 1026 10 16 0.01 0.25
7:52 am 07:52 Cloudy with Light Rain 45 7.2 44 6.7 97 97 N 16 26 30.33 1027 7 11 0.01 0.25
8:10 am 08:10 Cloudy 46 7.8 44 6.7 93 93 NNE 15 24 30.34 1027 10 16 0.00 0.00
8:38 am 08:38 Cloudy with Drizzle 46 7.8 44 6.7 93 93 N 10 17 30.36 1028 6 10 0.00 0.00
8:52 am 08:52 Cloudy with Light Rain 45 7.2 44 6.7 97 97 N 14 22 30.35 1028 3 4 0.00 0.00
9:15 am 09:15 Cloudy with Light Rain 45 7.2 44 6.7 97 97 N 16 26 30.36 1028 2 2 0.00 0.00
9:37 am 09:37 Cloudy with Light Rain 45 7.2 44 6.7 97 97 N 16 26 30.35 1028 3 4 0.01 0.25
9:52 am 09:52 Cloudy with Light Rain 46 7.8 45 7.2 96 96 N 13 20 30.36 1028 3 4 0.02 0.51
9:58 am 09:58 Cloudy with Light Rain 46 7.8 45 7.2 96 96 N 15 24 30.36 1028 3 5 0.01 0.25
10:30 am 10:30 Cloudy 47 8.3 45 7.2 93 93 N 16 26 30.37 1028 7 11 0.01 0.25
10:52 am 10:52 Cloudy with Light Rain 47 8.3 44 6.7 90 90 NNE 14 22 30.35 1028 7 11 0.01 0.25
11:52 am 11:52 Cloudy 48 8.9 45 7.2 89 89 N 17 28 30.36 1028 10 16 0.01 0.25
12:52 pm 12:52 Cloudy with Light Rain 48 8.9 46 7.8 93 93 N 16 26 30.37 1029 5 8 0.00 0.00
1:52 pm 13:52 Cloudy with Light Rain 49 9.4 46 7.8 90 90 N 16 26 30.37 1028 10 16 0.01 0.25
2:26 pm 14:26 Cloudy with Light Rain 49 9.4 47 8.3 93 93 N 15 24 30.37 1029 3 5 0.00 0.00
2:33 pm 14:33 Cloudy with Light Rain 49 9.4 47 8.3 93 93 N 12 19 30.37 1029 3 5 0.00 0.00
2:42 pm 14:42 Cloudy with Light Rain 49 9.4 47 8.3 93 93 N 14 22 30.36 1028 3 4 0.00 0.00
2:52 pm 14:52 Cloudy with Light Rain 49 9.4 47 8.3 93 93 N 15 24 30.36 1028 3 4 0.00 0.00
3:32 pm 15:32 Cloudy with Mist and Fog 50 10 47 8.3 89 89 N 13 20 30.36 1028 6 10 0.00 0.00
3:52 pm 15:52 Cloudy 50 10 46 7.8 86 86 NNE 15 24 30.36 1028 7 11 0.00 0.00
4:31 pm 16:31 Cloudy with Light Rain 51 10.6 46 7.8 83 83 NNE 14 22 30.36 1028 10 16 0.00 0.00
4:52 pm 16:52 Cloudy with Light Rain 51 10.6 45 7.2 80 80 N 14 22 30.36 1028 8 13 0.00 0.00
5:52 pm 17:52 Cloudy with Light Rain 50 10 47 8.3 89 89 N 7 11 30.38 1029 6 10 0.04 1.02
6:52 pm 18:52 Cloudy with Light Rain 49 9.4 46 7.8 90 90 NNE 10 17 30.38 1029 6 10 0.01 0.25
7:04 pm 19:04 Cloudy with Drizzle 49 9.4 46 7.8 90 90 NNE 10 17 30.38 1029 5 8 0.00 0.00
7:36 pm 19:36 Cloudy with Light Rain 48 8.9 45 7.2 89 89 N 15 24 30.38 1029 6 10 0.01 0.25
7:52 pm 19:52 Cloudy with Light Rain 48 8.9 45 7.2 89 89 N 13 20 30.37 1029 10 16 0.01 0.25
8:52 pm 20:52 Cloudy with Light Rain 47 8.3 45 7.2 93 93 N 10 17 30.39 1029 10 16 0.00 0.00
9:52 pm 21:52 Cloudy with Light Rain 47 8.3 44 6.7 90 90 N 15 24 30.38 1029 10 16 0.00 0.00
10:52 pm 22:52 Cloudy with Light Rain 47 8.3 44 6.7 90 90 NNE 13 20 30.39 1029 10 16 0.00 0.00
11:52 pm 23:52 Cloudy with Light Rain 47 8.3 45 7.2 93 93 N 7 11 30.40 1030 10 16 0.01 0.25

Powered by AerisWeather